Location: ??
(35.5990°N, 139.7298°E)
Time: 09:08:33
(UTC+00:00)

NOSS 3-4 (C) - Pass Details

Date: 07 June 2020
Orbit: 893 x 1319 km, 63.4° (Epoch: 02 July)

Event Time Altitude Azimuth Distance (km) Brightness Sun altitude
Rises 11:43:29 0° 210° (SSW) 3,493 6.2 -18.2°
Reaches altitude 10° 11:45:57 10° 211° (SSW) 2,551 5.5 -18.5°
Maximum altitude 11:51:50 88° 302° (WNW) 911 3.3 -19.3°
Drops below altitude 10° 11:58:00 10° 31° (NNE) 2,670 6.0 -20.1°
Sets 12:00:38 0° 32° (NNE) 3,667 6.8 -20.5°
